Estación Meteorológica de la Universidad de Murcia
Estación Meteorológica de la Universidad de Murcia
Universidad de Murcia
 

Temperatura ambienteTemperatura ambiente

 

Máxima: 38,5 ºC a las 15:23:00 del día 24/07/2021
Mínima: 23,4 ºC a las 06:57:00 del día 24/07/2021

||Temperatura máxima últimos meses|| ---- ||Temperatura mínima últimos meses||


Temperatura máxima

  • 1 - 38,5 ºC del día 24/07/2021
  • 2 - 37,4 ºC del día 23/07/2021
  • 3 - 36 ºC del día 22/07/2021
  • 4 - 35,3 ºC del día 21/07/2021
  • 5 - 35 ºC del día 20/07/2021
  • 6 - 32,6 ºC del día 19/07/2021
  • 7 - 35,7 ºC del día 18/07/2021
  • 8 - 33,3 ºC del día 17/07/2021
  • 9 - 32,8 ºC del día 16/07/2021
  • 10 - 29,6 ºC del día 15/07/2021
  • 11 - 31,3 ºC del día 14/07/2021
  • 12 - 31,6 ºC del día 13/07/2021
  • 13 - 41,2 ºC del día 12/07/2021
  • 14 - 32,9 ºC del día 11/07/2021
  • 15 - 33,5 ºC del día 10/07/2021
  • 16 - 30,2 ºC del día 09/07/2021
  • 17 - 30,3 ºC del día 08/07/2021
  • 18 - 32,1 ºC del día 07/07/2021
  • 19 - 38 ºC del día 06/07/2021
  • 20 - 32,9 ºC del día 05/07/2021
  • 21 - 37,6 ºC del día 04/07/2021
  • 22 - 37,9 ºC del día 03/07/2021
  • 23 - 34,8 ºC del día 02/07/2021
  • 24 - 32 ºC del día 01/07/2021
  • 25 - 30,5 ºC del día 30/06/2021
  • 26 - 30,1 ºC del día 29/06/2021
  • 27 - 34 ºC del día 28/06/2021
  • 28 - 34,1 ºC del día 27/06/2021
  • 29 - 31,7 ºC del día 26/06/2021
  • 30 - 29,3 ºC del día 25/06/2021
  • 31 - 28,4 ºC del día 24/06/2021
  • 32 - 28,7 ºC del día 23/06/2021
  • 33 - 31 ºC del día 22/06/2021
  • 34 - 31,4 ºC del día 21/06/2021
  • 35 - 30,7 ºC del día 20/06/2021
  • 36 - 26,2 ºC del día 19/06/2021
  • 37 - 29,4 ºC del día 18/06/2021
  • 38 - 30,5 ºC del día 17/06/2021
  • 39 - 31,1 ºC del día 16/06/2021
  • 40 - 31,4 ºC del día 15/06/2021
  • 41 - 32,4 ºC del día 14/06/2021
  • 42 - 31,5 ºC del día 13/06/2021
  • 43 - 30,4 ºC del día 12/06/2021
  • 44 - 30,2 ºC del día 11/06/2021
  • 45 - 29,6 ºC del día 10/06/2021
  • 46 - 33,6 ºC del día 09/06/2021
  • 47 - 30,4 ºC del día 08/06/2021
  • 48 - 30,9 ºC del día 07/06/2021
  • 49 - 29,7 ºC del día 06/06/2021
  • 50 - 25,1 ºC del día 05/06/2021
  • 51 - 27,6 ºC del día 04/06/2021
  • 52 - 26,6 ºC del día 03/06/2021
  • 53 - 28,3 ºC del día 02/06/2021
  • 54 - 27 ºC del día 01/06/2021
  • 55 - 24,1 ºC del día 31/05/2021
  • 56 - 28,6 ºC del día 30/05/2021
  • 57 - 29,3 ºC del día 29/05/2021
  • 58 - 25,3 ºC del día 28/05/2021
  • 59 - 24,4 ºC del día 27/05/2021

||Volver al inicio de la página||


Temperatura mínima

  • 1 - 23,4 ºC del día 24/07/2021
  • 2 - 21,1 ºC del día 23/07/2021
  • 3 - 20,3 ºC del día 22/07/2021
  • 4 - 21,5 ºC del día 21/07/2021
  • 5 - 21,3 ºC del día 20/07/2021
  • 6 - 21,6 ºC del día 19/07/2021
  • 7 - 20,6 ºC del día 18/07/2021
  • 8 - 20 ºC del día 17/07/2021
  • 9 - 19,6 ºC del día 16/07/2021
  • 10 - 19,3 ºC del día 15/07/2021
  • 11 - 20,3 ºC del día 14/07/2021
  • 12 - 21,6 ºC del día 13/07/2021
  • 13 - 23,8 ºC del día 12/07/2021
  • 14 - 20,7 ºC del día 11/07/2021
  • 15 - 18,5 ºC del día 10/07/2021
  • 16 - 21,6 ºC del día 09/07/2021
  • 17 - 22,3 ºC del día 08/07/2021
  • 18 - 22,9 ºC del día 07/07/2021
  • 19 - 22,3 ºC del día 06/07/2021
  • 20 - 21,1 ºC del día 05/07/2021
  • 21 - 20,9 ºC del día 04/07/2021
  • 22 - 20 ºC del día 03/07/2021
  • 23 - 19,9 ºC del día 02/07/2021
  • 24 - 19,8 ºC del día 01/07/2021
  • 25 - 21,2 ºC del día 30/06/2021
  • 26 - 18,7 ºC del día 29/06/2021
  • 27 - 19,1 ºC del día 28/06/2021
  • 28 - 18 ºC del día 27/06/2021
  • 29 - 17,2 ºC del día 26/06/2021
  • 30 - 17,8 ºC del día 25/06/2021
  • 31 - 18 ºC del día 24/06/2021
  • 32 - 17,3 ºC del día 23/06/2021
  • 33 - 19,7 ºC del día 22/06/2021
  • 34 - 18,3 ºC del día 21/06/2021
  • 35 - 18,6 ºC del día 20/06/2021
  • 36 - 19,8 ºC del día 19/06/2021
  • 37 - 19,5 ºC del día 18/06/2021
  • 38 - 17,6 ºC del día 17/06/2021
  • 39 - 21 ºC del día 16/06/2021
  • 40 - 20 ºC del día 15/06/2021
  • 41 - 18,5 ºC del día 14/06/2021
  • 42 - 19 ºC del día 13/06/2021
  • 43 - 17,9 ºC del día 12/06/2021
  • 44 - 17 ºC del día 11/06/2021
  • 45 - 18,7 ºC del día 10/06/2021
  • 46 - 17,4 ºC del día 09/06/2021
  • 47 - 17,3 ºC del día 08/06/2021
  • 48 - 17,5 ºC del día 07/06/2021
  • 49 - 14,6 ºC del día 06/06/2021
  • 50 - 15,2 ºC del día 05/06/2021
  • 51 - 18,4 ºC del día 04/06/2021
  • 52 - 18,1 ºC del día 03/06/2021
  • 53 - 16,8 ºC del día 02/06/2021
  • 54 - 16,2 ºC del día 01/06/2021
  • 55 - 16,1 ºC del día 31/05/2021
  • 56 - 15,7 ºC del día 30/05/2021
  • 57 - 14,7 ºC del día 29/05/2021
  • 58 - 15,9 ºC del día 28/05/2021
  • 59 - 14,1 ºC del día 27/05/2021

 

|| Humedad relativa|| Velocidad y dirección del viento|| Precipitación|| Radiación Solar Global y PAR|| Temperatura y humedad del suelo|| Presión atmosférica|| Más información|| Volver a la página principal|| Volver al inicio de la página||


Estación Meteorológica de la Universidad de Murcia
http://estacion.um.es/
Informacion actualizada a: 26/07/2021 a las 02:54:00